User: anonymous   Login
Location: Columbia
(38.9520°N, 92.3340°W)
Time: 21:18:02
(UTC-05:00)
Language:

Cosmos 158 Rocket - Orbit

View from above orbital plane
View from above orbital plane
View from above satellite
View from above satellite

Ground track
Ground track

The orbit data is extracted from the following two-line orbital elements,

1 02802U 67045B   15213.55777049  .00000107  00000-0  39048-4 0  9996
2 02802 074.0128 002.8802 0067341 222.7338 136.8572 14.43478771530044
Epoch (UTC): 01 August 2015 13:23:11
Eccentricity: 0.0067341
inclination: 74.0128°
perigee height: 699 km
apogee height: 795 km
right ascension of ascending node: 2.8802°
argument of perigee: 222.7338°
revolutions per day: 14.43478771
mean anomaly at epoch: 136.8572°
orbit number at epoch: 53004

The dashed part of the orbit path shows where the satellite is in the earth's shadow,  

DLR